Terminal Aerodrome Forecast
Issued by NWS Charleston, WV

Current Version | Previous Version | Graphics & Text | Print | Product List | Glossary On
Versions: 1 2 3 4 5 6 7 8 9 10 11 12 13 14 15 16 17 18 19 20 21 22
000
FTUS41 KRLX 091500 AAA
TAFBKW
TAF AMD
KBKW 091552Z 0916/1012 26006KT P6SM SCT014 BKN020 OVC100
     FM100400 00000KT P6SM SCT100=

USA.gov is the U.S. government's official web portal to all federal, state and local government web resources and services.